ATLAS 5 CENTAUR DEB, 44980

Orbit data source: Space-Track

ATLAS 5 CENTAUR DEB, 44980 is space debris in HEO originally from a launch on Wed, 17 Oct 2018 UTC launched from the Air Force Eastern Test Range (AFETR). Debris objects in space refer to the collection of defunct objects orbiting the Earth. Examples of debris include non-operational satellites, rocket bodies, and fragments generated from explosions, collisions, or faulty payload assembly.

Loading next visibility...
ATLAS 5 CENTAUR DEB details
Identifier
44980, 2018-079BP
Orbit
HEO
Last TLE update1 day ago
Origin
Flag of USULA (US)
ManufacturerULA Decatur
MissionSpacecraft
Bus & MotorUnknown
MassUnknown
Launch date (UTC)
2018-10-17 (6 years ago)
Launch vehicleUnknown
Launch site
Air Force Eastern Test Range (AFETR)
Object type
Payload
Rocket body
Debris
Shape & HBRUnknown
Radar Cross SectionRCS unknown

Expand to show TLE details & history

TLE from 1 day ago
0 ATLAS 5 CENTAUR DEB
1 44980U 18079BP  24360.51093210 -.00000065  00000-0  00000-0 0  9998
2 44980  13.0378  10.8410 4488303  16.5361 354.4228  2.15714956 40221
Epoch: 2024-12-25T12:15Z
Definitive object data (Epoch: 2024-12-25T12:15:44.533Z)
Latitude0.00004°
Longitude92.40624°
Altitude7,761.103 km
Speed6.374 km/s
True Right ascension00h 43m 22s
True Declination0° 00' 00"
Sunlit
Object was in daylight at TLE epoch
Visualization TLE readout
Latitude-5.74591°
Longitude-62.03283°
Altitude29,872.643 km
Speed2.498 km/s
Apparent Right ascension14h 09m 00s
Apparent Declination-13° 35' 31"
Sunlit
Object is in daylight
Visualization observer readout
Local Sidereal Time16:17:58
Azimuth216.228° SW
Elevation28.67°
Doppler factor1
Orbital elements
Apogee altitude30,282.904 km
Perigee altitude7,568.6 km
Semi-major axis25,303.889 km
Eccentricity0.4488303
Inclination13.0378°
RAAN10.841°
Arg. of periapsis16.5361°
True anomaly343.73066°
Mean anomaly354.4228°
Eccentric anomaly349.92339°
Mean motion0.53922 °/min
BSTARUnknown
Orbital period667.64 mins
Loading maneuver chart data...

ATLAS 5 CENTAUR DEB Visibility forecast

Observer location: undefined°, undefined

Span
Click to sort rows by Start time (UTC) header in descending order
Start Az.
Max El. time (UTC)
Max El. Az.
Max El.
End time (UTC)
End Az.
264 mins2024-12-26 16:55:43.151Z216.216° SW2024-12-26 16:55:43.151Z216.216° SW25.62°2024-12-26 21:19:43.151Z137.538° SSE
443 mins2024-12-27 09:32:43.151Z256.056° W2024-12-27 11:05:43.151Z195.147° SSW36.93°2024-12-27 16:55:43.151Z181.884° SSW
|